Seattle, WA
on Tuesday, February 19, 2013

Tuesday
Previous Day Next Day
Daily Summary
 ActualAverageRecord
Temperature
Mean Temperature °F / °C 44°F / 7°C  
Max Temperature 51°F / 11°C 50°F / 10°C 67°F / 19°C (1977)
Min Temperature 35°F / 2°C 37°F / 3°C 22°F / -5°C (1986)
Degree Days
Heating Degree Days 22 21  
Month to date heating degree days 380 417  
Since 1 July heating degree days 2954 3066  
Cooling Degree Days 0 0  
Month to date cooling degree days 0 0  
Year to date cooling degree days 0 0  
Moisture
Dew Point 33°F / 1°C   
Average Humidity 68    
Maximum Humidity 92    
Minimum Humidity 44    
Precipitation
Precipitation 0.00 in / 0.00 cm 0.12 in / 3.05 cm 1.76 in / 4.47 cm (1975)
Month to date precipitation 0.51 2.41  
Year to date precipitation 4.67 7.98  
Snow
Snow 0.00 in / 0.00 cm in / cm 4.60 in / 11.68 cm (1949)
Month to date snowfall 0.0  
Since 1 July snowfall 0.6  
Snow Depth 0.00 in / 0.00 cm   
Wind
Wind Speed 8 mph / 12 km/h   
Max Wind Speed 17 mph / 27 km/h   
Max Gust Speed 20 mph / 32 km/h   
Visibility 10 miles / 16 kilometers   
Events     

Key: T is trace of precipitation, MM is missing value
Source: NWS Daily Summary
Time(PST)TemperatureDew PointHumidity Pressure Visibility Wind DirectionWind SpeedGust SpeedPrecipitationEvents Conditions
12:53 AM 41.0°F / 5.0°C 36.0°F / 2.2°C 82% 29.77 in / 1008.0 hPa 10.0 miles / 16.1 kilometers NNE 5.8 mph / 9.3 km/h - N/A   Mostly Cloudy
1:53 AM 39.9°F / 4.4°C 33.1°F / 0.6°C 77% 29.76 in / 1007.8 hPa 10.0 miles / 16.1 kilometers NE 5.8 mph / 9.3 km/h - N/A   Mostly Cloudy
2:53 AM 36.0°F / 2.2°C 30.9°F / -0.6°C 82% 29.76 in / 1007.8 hPa 10.0 miles / 16.1 kilometers North 4.6 mph / 7.4 km/h - N/A   Scattered Clouds
3:53 AM 37.9°F / 3.3°C 32.0°F / 0.0°C 79% 29.76 in / 1007.7 hPa 10.0 miles / 16.1 kilometers NNW 4.6 mph / 7.4 km/h - N/A   Mostly Cloudy
4:53 AM 37.9°F / 3.3°C 35.1°F / 1.7°C 89% 29.77 in / 1007.9 hPa 10.0 miles / 16.1 kilometers North 5.8 mph / 9.3 km/h - N/A   Overcast
5:53 AM 39.0°F / 3.9°C 36.0°F / 2.2°C 89% 29.78 in / 1008.4 hPa 10.0 miles / 16.1 kilometers North 3.5 mph / 5.6 km/h - N/A   Overcast
6:53 AM 39.9°F / 4.4°C 36.0°F / 2.2°C 86% 29.79 in / 1008.6 hPa 10.0 miles / 16.1 kilometers North 6.9 mph / 11.1 km/h - N/A   Overcast
7:53 AM 41.0°F / 5.0°C 35.1°F / 1.7°C 79% 29.80 in / 1009.0 hPa 10.0 miles / 16.1 kilometers NNE 11.5 mph / 18.5 km/h - N/A   Mostly Cloudy
8:53 AM 42.1°F / 5.6°C 36.0°F / 2.2°C 79% 29.81 in / 1009.5 hPa 10.0 miles / 16.1 kilometers NNE 10.4 mph / 16.7 km/h - N/A   Mostly Cloudy
10:53 AM 48.9°F / 9.4°C 35.1°F / 1.7°C 59% 29.84 in / 1010.3 hPa 10.0 miles / 16.1 kilometers North 9.2 mph / 14.8 km/h - N/A   Mostly Cloudy
11:53 AM 48.9°F / 9.4°C 30.9°F / -0.6°C 50% 29.84 in / 1010.5 hPa 10.0 miles / 16.1 kilometers NNE 12.7 mph / 20.4 km/h 19.6 mph / 31.5 km/h N/A   Scattered Clouds
12:53 PM 50.0°F / 10.0°C 33.1°F / 0.6°C 52% 29.86 in / 1010.9 hPa 10.0 miles / 16.1 kilometers NNE 9.2 mph / 14.8 km/h - N/A   Mostly Cloudy
1:53 PM 50.0°F / 10.0°C 34.0°F / 1.1°C 54% 29.86 in / 1011.1 hPa 10.0 miles / 16.1 kilometers North 10.4 mph / 16.7 km/h - N/A   Mostly Cloudy
2:53 PM 51.1°F / 10.6°C 30.9°F / -0.6°C 46% 29.88 in / 1011.6 hPa 10.0 miles / 16.1 kilometers NNW 13.8 mph / 22.2 km/h - N/A   Scattered Clouds
4:53 PM 46.9°F / 8.3°C 32.0°F / 0.0°C 56% 29.90 in / 1012.3 hPa 10.0 miles / 16.1 kilometers North 13.8 mph / 22.2 km/h - N/A   Scattered Clouds
5:53 PM 44.1°F / 6.7°C 30.9°F / -0.6°C 60% 29.91 in / 1012.9 hPa 10.0 miles / 16.1 kilometers North 9.2 mph / 14.8 km/h - N/A   Scattered Clouds
6:53 PM 41.0°F / 5.0°C 33.1°F / 0.6°C 73% 29.94 in / 1013.6 hPa 10.0 miles / 16.1 kilometers NNW 5.8 mph / 9.3 km/h - N/A   Partly Cloudy
7:53 PM 41.0°F / 5.0°C 33.1°F / 0.6°C 73% 29.96 in / 1014.4 hPa 10.0 miles / 16.1 kilometers North 8.1 mph / 13.0 km/h - N/A   Partly Cloudy
8:53 PM 41.0°F / 5.0°C 34.0°F / 1.1°C 76% 29.98 in / 1015.0 hPa 10.0 miles / 16.1 kilometers North 3.5 mph / 5.6 km/h - N/A   Clear
9:53 PM 41.0°F / 5.0°C 34.0°F / 1.1°C 76% 30.00 in / 1015.7 hPa 10.0 miles / 16.1 kilometers Calm Calm - N/A   Clear
10:53 PM 41.0°F / 5.0°C 35.1°F / 1.7°C 79% 30.02 in / 1016.5 hPa 10.0 miles / 16.1 kilometers Calm Calm - N/A   Partly Cloudy
11:53 PM 39.9°F / 4.4°C 34.0°F / 1.1°C 79% 30.03 in / 1016.9 hPa 10.0 miles / 16.1 kilometers ESE 5.8 mph / 9.3 km/h - N/A   Partly Cloudy
Moon Phase
Feb. 19 Feb. 25 Mar. 04 Mar. 11 Mar. 19
Sunrise:07:07 AM (PST) Moon Rise:12:02 PM (PST)2/19
Sunset:05:39 PM (PST) Moon Set:02:56 AM (PST)2/19

Copyright © 2014 The Weather Underground, Inc.